This is the latest recevied weather packets stored in our database for station/object IR3AS. If no packets are shown the sender has not sent any weather packets the latest 1 day(s).
| Time | Temp. | Humidity | Pressure | Rain* | Wind** | Luminosity | Snow |
|---|---|---|---|---|---|---|---|
| 1778073048 | 1.11° C | 92% | 848.6 hPa | 0 mm | - | - | - |
| 1778072748 | 1.67° C | 92% | 848.1 hPa | 0 mm | - | - | - |
| 1778072448 | 2.22° C | 92% | 849.2 hPa | 0 mm | - | - | - |
| 1778072148 | 3.33° C | 93% | 850.2 hPa | 0 mm | - | - | - |
| 1778071848 | 3.33° C | 93% | 848 hPa | 0 mm | - | - | - |
| 1778071549 | 3.33° C | 93% | 847.9 hPa | 0 mm | - | - | - |
| 1778070648 | 3.33° C | 93% | 849.4 hPa | 0 mm | - | - | - |
| 1778069448 | 3.89° C | 93% | 847.6 hPa | 0 mm | - | - | - |
| 1778064948 | 2.78° C | 93% | 847 hPa | 0 mm | - | - | - |
| 1778063749 | 2.78° C | 93% | 847.8 hPa | 0 mm | - | - | - |
| 1778063148 | 2.78° C | 93% | 847.7 hPa | 0 mm | - | - | - |
| 1778061649 | 2.78° C | 93% | 850.1 hPa | 0 mm | - | - | - |
| 1778054449 | 1.11° C | 93% | 848.9 hPa | 0 mm | - | - | - |
| 1778054149 | 1.11° C | 93% | 847.3 hPa | 0 mm | - | - | - |
| 1778053849 | 1.11° C | 93% | 847.5 hPa | 0 mm | - | - | - |
| 1778053549 | 1.11° C | 93% | 848 hPa | 0 mm | - | - | - |
| 1778053249 | 1.11° C | 93% | 848.9 hPa | 0 mm | - | - | - |
| 1778052949 | 0.56° C | 93% | 848.4 hPa | 0 mm | - | - | - |
| 1778052649 | 0.56° C | 93% | 849.5 hPa | 0 mm | - | - | - |
| 1778052349 | 1.11° C | 93% | 850 hPa | 0 mm | - | - | - |
| 1778051749 | 1.11° C | 93% | 850.9 hPa | 0 mm | - | - | - |
| 1778051449 | 1.11° C | 93% | 851.1 hPa | 0 mm | - | - | - |
| 1778051150 | 1.11° C | 93% | 850 hPa | 0 mm | - | - | - |
| 1778050849 | 1.11° C | 93% | 851.1 hPa | 0 mm | - | - | - |
| 1778050549 | 1.67° C | 94% | 851.6 hPa | 0 mm | - | - | - |
* Rain latest hour (hover to see other rain measurements)
** Current wind speed in m/s (hover to see current wind gust speed)